TimeCDT,TemperatureF,Dew PointF,Humidity,Sea Level PressureIn,VisibilityMPH,Wind Direction,Wind SpeedMPH,Gust SpeedMPH,PrecipitationIn,Events,Conditions,WindDirDegrees,DateUTC
12:53 AM,66.9,55.9,68,30.10,10.0,South,5.8,-,N/A,,Clear,170,2013-07-12 05:53:00
1:53 AM,62.1,57.0,84,30.12,10.0,Calm,Calm,-,N/A,,Clear,0,2013-07-12 06:53:00
2:53 AM,60.1,55.9,86,30.10,10.0,Calm,Calm,-,N/A,,Clear,0,2013-07-12 07:53:00
3:53 AM,57.9,55.0,90,30.10,10.0,Calm,Calm,-,N/A,,Clear,0,2013-07-12 08:53:00
4:53 AM,57.0,54.0,89,30.11,10.0,Calm,Calm,-,N/A,,Clear,0,2013-07-12 09:53:00
5:53 AM,55.9,54.0,93,30.14,10.0,Calm,Calm,-,N/A,,Clear,0,2013-07-12 10:53:00
6:53 AM,63.0,57.0,81,30.14,10.0,Calm,Calm,-,N/A,,Clear,0,2013-07-12 11:53:00
7:53 AM,68.0,54.0,61,30.16,10.0,South,3.5,-,N/A,,Clear,180,2013-07-12 12:53:00
8:53 AM,72.0,50.0,46,30.16,10.0,South,5.8,-,N/A,,Clear,170,2013-07-12 13:53:00
9:53 AM,73.9,50.0,43,30.15,10.0,SSW,4.6,-,N/A,,Clear,200,2013-07-12 14:53:00
10:53 AM,77.0,54.0,45,30.15,10.0,Calm,Calm,-,N/A,,Clear,0,2013-07-12 15:53:00
11:53 AM,78.1,53.1,42,30.13,10.0,Variable,3.5,-,N/A,,Clear,0,2013-07-12 16:53:00
12:53 PM,80.1,55.0,42,30.12,10.0,South,10.4,-,N/A,,Clear,180,2013-07-12 17:53:00
1:53 PM,80.1,53.1,39,30.12,10.0,South,9.2,-,N/A,,Clear,180,2013-07-12 18:53:00
2:53 PM,81.0,48.9,33,30.12,10.0,SW,8.1,-,N/A,,Clear,230,2013-07-12 19:53:00
3:53 PM,81.0,52.0,36,30.11,10.0,South,8.1,-,N/A,,Clear,180,2013-07-12 20:53:00
4:53 PM,82.0,51.1,34,30.09,10.0,SSE,5.8,-,N/A,,Clear,160,2013-07-12 21:53:00
5:53 PM,81.0,52.0,36,30.07,10.0,SSW,6.9,-,N/A,,Clear,200,2013-07-12 22:53:00
6:53 PM,80.1,51.1,36,30.08,10.0,South,6.9,-,N/A,,Clear,180,2013-07-12 23:53:00
7:53 PM,78.1,52.0,40,30.07,10.0,SSE,6.9,-,N/A,,Clear,150,2013-07-13 00:53:00
8:53 PM,70.0,54.0,57,30.08,10.0,Calm,Calm,-,N/A,,Clear,0,2013-07-13 01:53:00
9:53 PM,70.0,53.1,55,30.08,10.0,SSE,6.9,-,N/A,,Clear,150,2013-07-13 02:53:00
10:53 PM,71.1,53.1,53,30.07,10.0,South,4.6,-,N/A,,Clear,190,2013-07-13 03:53:00
11:53 PM,69.1,55.0,61,30.08,10.0,South,10.4,-,N/A,,Clear,170,2013-07-13 04:53:00